Theta_e
286 285 284 284 283 282 281 281 280 280 279 279 279 279 279 278 278 277 277 277 276 276 276 276 276 276 275 274 275 275 274 273 271 272 274 274 274 274 275 275 276 275 276
285 284 284 283 282 281 281 280 280 279 279 279 279 279 278 278 277 276 276 276 275 275 276 275 275 277 274 274 274 273 273 273 271 270 273 273 273 274 274 274 276 277 276
284 284 282 282 282 281 280 280 280 279 279 279 279 278 277 277 277 276 276 276 275 275 275 275 275 275 274 274 273 272 272 274 272 271 271 273 273 274 274 275 275 275 277
284 283 282 282 281 281 280 280 279 279 278 278 278 277 277 277 276 276 276 275 275 275 276 276 275 274 274 273 273 273 274 272 272 271 271 272 273 274 274 273 273 275 275
283 283 282 282 281 280 280 280 279 279 279 278 277 277 276 276 276 275 275 275 275 275 275 276 275 275 277 276 275 273 273 271 271 271 271 272 272 273 272 273 272 273 275
283 282 282 281 281 281 281 280 279 279 278 278 277 276 275 276 280 281 277 275 276 275 274 274 275 274 275 278 279 279 278 271 266 266 271 272 272 272 272 272 273 271 268
283 282 282 282 281 281 281 280 279 278 278 277 276 276 275 275 281 282 282 276 275 275 274 274 275 275 274 273 276 278 278 279 279 277 273 272 272 272 273 272 271 270 269
283 283 282 282 281 281 280 279 279 278 277 277 276 276 275 275 281 283 282 276 275 275 274 274 274 273 273 273 273 272 273 274 275 276 275 274 274 276 273 272 271 269 269
283 282 282 282 281 280 280 279 279 278 277 276 277 275 275 274 281 282 281 276 275 274 274 274 273 273 275 278 275 272 273 274 278 279 279 279 278 277 275 271 265 265 264
283 283 283 283 282 281 281 280 279 279 278 277 276 275 274 274 279 282 281 274 270 273 273 274 276 273 277 278 275 272 270 272 272 269 270 271 272 270 273 271 269 265 265
283 283 282 283 283 282 282 280 280 278 276 275 274 272 272 271 272 280 281 275 273 271 271 272 273 277 278 279 280 275 273 274 269 265 266 266 267 268 269 270 270 268 265
282 282 282 283 283 282 282 281 278 277 275 273 271 269 269 270 272 277 279 280 279 271 271 272 272 277 278 279 279 280 280 278 260 257 258 263 265 266 268 269 269 269 269
282 282 282 282 282 282 280 276 274 274 274 272 270 269 267 269 270 276 278 279 279 277 276 275 277 278 279 279 280 280 275 264 260 257 260 264 266 267 268 267 267 268 268
281 279 277 277 274 274 274 274 273 271 270 268 268 267 264 266 266 267 268 269 273 275 275 271 274 278 279 277 271 274 270 268 266 263 263 265 266 264 263 265 264 265 264
273 271 271 271 271 268 269 268 269 265 268 265 265 264 262 260 265 271 268 264 264 269 271 267 261 267 268 269 267 267 267 267 265 265 262 261 263 264 264 264 264 263 262
270 269 269 268 267 268 268 266 274 273 275 275 274 267 263 272 275 277 278 279 279 280 276 271 269 268 268 268 269 269 266 265 265 264 261 261 262 262 261 262 263 261 261
268 267 266 267 266 265 264 265 264 267 276 277 276 275 274 274 275 276 277 277 277 276 270 269 269 269 267 268 268 267 265 265 264 263 263 261 262 261 260 260 261 261 260
264 264 264 263 263 262 262 260 260 259 258 258 266 269 270 270 271 271 272 270 257 258 254 258 259 261 263 265 266 265 264 263 262 261 261 260 258 258 258 258 259 259 259
262 261 261 260 259 260 260 258 257 254 252 252 254 261 260 266 267 267 267 251 249 249 249 253 254 258 261 262 262 262 261 259 260 258 257 257 257 256 256 257 259 259 259
259 260 260 260 258 258 257 257 255 252 251 249 248 249 249 252 251 249 248 246 246 247 249 250 253 256 259 259 258 258 257 257 257 257 256 255 256 256 257 257 258 258 258
258 257 258 256 255 254 253 254 254 251 248 246 247 247 264 253 248 245 245 245 246 250 251 250 256 258 257 257 257 256 256 257 258 257 255 253 255 255 256 257 257 257 259
255 254 254 254 255 255 253 252 251 249 248 246 246 245 262 247 244 244 244 246 248 249 251 251 256 251 252 256 256 256 255 255 257 256 254 254 254 254 255 256 256 257 257
254 254 253 251 252 252 251 248 248 247 247 245 245 246 245 244 244 244 246 248 248 249 250 249 252 252 250 255 256 257 256 256 257 256 253 253 253 249 253 254 255 255 253
254 254 254 252 252 252 253 251 248 249 247 246 244 244 245 246 246 247 248 248 248 249 249 250 250 251 251 252 253 256 256 256 255 253 252 252 251 246 250 252 254 256 256
254 254 254 255 254 253 251 250 250 246 245 245 246 245 244 246 246 247 248 248 249 249 250 250 250 250 251 251 254 255 255 257 256 254 251 249 246 245 245 249 253 255 253
255 255 254 252 252 250 250 250 248 247 245 247 248 247 247 248 249 249 249 249 249 250 250 249 250 250 250 251 252 254 255 258 256 254 250 246 246 246 247 251 252 255 255
Wind_Speed
12 11 12 10 10 10 10 10 11 10 10 10 10 10 9 9 7 7 6 6 6 5 4 5 4 3 2 1 0 0 1 1 4 4 1 4 6 10 11 9 10 10 10
11 11 12 11 11 12 11 11 10 12 10 11 10 9 9 8 7 7 7 6 6 5 5 4 3 2 1 2 2 3 2 2 2 9 7 5 9 10 12 12 10 10 10
11 13 12 12 12 12 12 11 11 11 10 9 9 10 9 8 7 6 6 6 6 5 5 5 4 4 3 3 4 3 2 3 3 5 8 6 8 9 11 10 11 11 9
12 13 14 14 14 13 12 12 11 10 11 9 7 8 9 8 7 6 6 6 5 5 4 4 5 5 5 5 4 4 3 3 4 6 7 9 8 10 7 11 14 10 12
14 13 13 11 10 10 11 11 10 10 9 9 9 7 7 7 6 7 6 6 5 5 4 4 4 6 8 7 3 4 4 3 4 6 7 8 8 9 10 10 12 13 12
14 13 10 10 10 11 11 11 10 9 8 8 8 8 8 5 14 14 10 5 5 5 4 5 5 6 6 10 10 12 9 4 4 3 6 8 10 9 10 10 10 13 15
14 12 12 12 12 11 11 10 11 10 8 8 7 8 8 6 15 15 16 5 5 5 5 5 5 4 5 5 10 14 12 14 15 10 8 7 12 10 10 12 13 12 13
14 13 12 12 12 10 10 11 9 8 10 8 8 8 7 7 15 16 16 6 5 6 6 6 6 6 6 6 7 8 9 10 10 8 9 9 9 8 10 10 12 13 12
15 14 14 13 13 12 12 11 9 8 7 7 6 8 8 6 15 16 12 5 6 7 6 6 6 7 11 16 10 8 9 8 10 16 18 17 17 19 15 8 7 9 12
15 14 13 13 13 13 13 11 8 6 8 7 7 7 7 6 14 14 12 4 5 5 5 7 13 9 16 17 11 8 10 7 6 3 3 8 10 9 14 8 7 9 9
9 11 11 13 14 12 11 7 9 9 6 6 6 4 6 5 7 14 15 3 5 5 6 6 6 16 19 19 20 8 9 7 4 2 3 4 5 6 6 6 8 8 8
12 13 13 13 10 9 11 9 9 9 9 7 4 3 2 3 6 12 15 17 12 6 7 6 7 17 18 19 17 20 21 11 2 0 1 3 5 6 6 7 10 10 9
12 12 12 11 10 9 11 10 6 7 6 6 6 4 2 3 4 12 14 16 18 12 7 10 17 19 20 18 22 15 5 2 1 1 3 5 5 6 9 8 9 11 12
11 10 8 9 7 6 4 6 6 6 5 4 4 3 2 2 3 3 4 5 11 10 10 6 10 15 17 14 6 9 2 3 4 5 4 4 4 3 6 6 7 9 9
7 6 6 5 6 5 4 3 3 1 4 4 3 4 4 2 5 8 7 4 4 9 9 5 2 6 8 8 6 6 5 4 5 5 3 3 4 5 6 6 6 7 8
7 5 5 5 4 5 5 4 5 6 8 7 8 7 3 9 8 10 12 14 16 18 9 9 10 9 9 9 9 8 6 6 6 5 3 3 5 5 6 6 6 6 8
7 6 4 5 5 5 3 5 5 4 4 3 6 10 7 4 7 10 13 15 17 15 6 7 7 6 5 7 7 6 4 5 5 4 3 3 4 4 6 6 6 7 8
6 7 5 4 5 4 4 4 4 4 3 2 7 8 9 9 9 10 12 11 5 6 2 5 5 6 7 7 6 5 4 3 4 3 3 3 3 4 5 6 6 7 7
6 4 5 5 4 5 5 5 4 4 3 2 2 4 7 10 9 9 10 3 1 2 3 3 4 5 7 6 4 4 4 4 3 2 2 3 3 3 5 5 6 9 10
6 8 6 6 5 5 4 5 4 3 3 3 2 1 3 5 3 2 2 1 2 3 3 3 3 5 7 5 3 3 3 3 3 3 3 3 3 3 5 6 5 6 6
5 5 7 5 5 4 4 4 4 3 3 2 2 3 5 3 2 2 2 3 4 4 4 3 5 6 4 4 4 3 3 4 3 3 3 3 3 3 4 5 6 6 6
5 5 4 5 4 4 4 4 4 3 3 3 2 3 5 2 1 3 3 4 5 5 4 4 6 4 4 4 4 4 4 4 4 3 3 3 3 3 4 5 5 6 5
5 5 4 3 3 5 4 3 3 3 3 3 2 2 1 2 3 4 5 5 4 5 4 4 5 5 4 4 4 4 5 5 4 3 3 3 3 3 4 5 6 6 3
4 4 5 4 3 3 3 3 3 3 2 1 2 2 3 3 4 5 5 5 4 5 5 5 5 6 5 4 3 4 5 5 3 4 6 5 5 3 3 5 6 7 6
4 4 3 4 3 3 3 3 2 1 2 2 3 3 4 4 4 5 5 4 5 5 6 5 4 6 8 9 7 8 8 11 7 6 4 5 6 5 4 4 7 7 5
3 3 3 3 3 3 3 2 2 2 3 3 4 4 4 4 4 5 5 5 5 5 6 5 6 9 9 7 8 10 10 11 9 10 6 5 5 5 4 7 8 7 7
Wind_Direction
159 157 153 152 147 148 152 153 152 143 146 147 148 141 141 140 137 127 125 133 126 128 130 134 132 130 138 112 58 217 235 228 273 292 330 316 308 313 313 306 301 299 304
156 152 157 152 152 154 160 159 156 155 158 157 151 148 144 139 139 142 147 143 149 165 162 147 171 155 171 183 199 214 219 251 257 298 310 315 308 310 305 309 311 305 300
157 158 156 158 160 166 165 162 158 155 160 158 156 156 147 144 149 150 150 160 176 173 171 180 190 190 218 207 210 228 230 270 251 270 286 302 301 308 312 309 307 305 301
165 167 168 171 171 169 165 164 162 163 161 164 166 155 148 147 148 156 163 174 180 184 187 198 207 213 222 217 221 245 251 236 240 259 280 297 302 310 297 315 314 314 309
172 175 179 169 163 159 162 164 163 167 169 165 155 153 149 152 163 162 181 186 180 193 206 217 220 226 232 217 222 226 229 237 247 266 281 291 299 317 318 316 305 308 307
175 181 167 163 161 167 165 165 164 171 168 164 165 165 162 177 184 185 191 180 183 195 209 225 231 231 236 263 267 267 255 214 232 229 280 278 299 307 308 308 309 318 315
175 168 168 170 174 175 165 165 174 178 169 175 173 171 182 190 194 197 203 186 188 194 209 225 238 224 222 226 260 265 269 273 272 271 283 282 293 302 305 314 312 305 299
176 172 169 170 172 167 168 176 172 175 182 184 186 192 180 201 202 206 210 179 192 209 212 218 229 232 223 229 242 244 247 247 252 259 263 277 271 297 307 304 303 301 294
179 174 172 171 170 171 179 180 179 177 186 188 188 188 194 201 206 213 214 173 204 222 215 219 228 244 248 257 254 248 254 249 248 272 283 293 306 308 308 309 302 306 305
181 176 167 167 178 184 183 180 173 183 206 193 194 192 195 200 210 218 220 155 205 228 221 231 238 239 258 259 258 249 259 247 246 253 285 294 298 296 304 295 291 293 304
148 150 162 174 180 187 179 172 178 195 190 188 193 162 202 192 214 228 230 175 211 229 235 236 233 251 262 262 259 250 244 240 253 200 260 275 295 288 284 283 294 291 288
155 168 175 180 182 177 177 185 191 188 192 194 175 204 202 162 205 236 240 243 234 222 235 239 236 253 261 262 262 264 268 269 139 268 302 294 286 286 290 297 296 288 278
165 176 178 175 181 180 182 177 167 178 189 194 199 210 165 174 216 243 247 252 257 262 256 238 247 256 259 263 269 262 250 162 189 268 264 270 271 285 297 296 292 289 286
165 162 153 158 146 145 144 162 166 175 180 167 186 197 181 195 211 225 240 258 273 278 290 302 286 276 264 263 241 257 177 203 223 239 246 258 280 282 286 285 297 303 303
123 127 126 124 139 124 99 139 141 116 156 170 185 161 168 222 234 235 228 232 227 245 254 256 256 256 256 251 234 219 210 215 230 236 231 249 271 284 284 298 296 298 292
118 123 135 131 126 128 129 97 125 140 175 168 167 173 231 229 241 251 259 268 274 272 252 245 249 240 240 243 239 237 215 203 222 215 210 235 268 284 291 298 295 291 295
122 126 119 120 126 133 122 135 129 24 116 132 73 60 41 1 323 310 307 305 307 321 326 324 328 327 268 258 251 234 226 219 201 197 215 239 269 283 296 293 298 297 298
105 111 121 118 119 121 127 122 114 126 120 358 20 26 20 9 356 338 324 336 5 350 336 311 307 304 303 297 272 250 234 207 210 202 215 227 230 266 286 286 289 291 295
108 104 106 103 101 110 108 98 96 94 103 117 359 30 15 3 355 355 0 77 282 300 285 295 286 295 291 279 262 249 238 224 215 183 202 221 241 237 267 266 278 291 285
84 108 102 110 110 100 97 109 109 114 117 114 87 270 323 38 31 344 332 291 296 271 262 256 273 283 280 266 265 256 245 237 225 210 222 220 242 250 263 271 280 286 285
106 99 107 93 99 112 121 122 125 119 124 133 214 242 256 124 209 237 263 277 267 278 275 260 292 294 282 277 265 256 247 256 245 231 235 221 243 256 253 267 278 278 274
98 102 99 115 123 118 119 123 123 124 148 165 238 277 346 62 270 266 270 267 261 254 255 254 280 253 249 259 258 248 243 249 245 230 250 244 242 249 264 274 274 277 275
102 108 102 99 114 116 105 108 130 158 180 198 220 282 314 281 269 264 261 262 261 269 269 258 261 274 264 254 245 250 253 256 252 208 229 243 242 226 244 266 271 280 270
112 123 130 119 119 124 141 168 184 186 181 238 269 265 258 255 255 259 265 270 273 270 262 261 255 253 262 256 244 247 244 254 248 222 224 238 246 224 231 257 265 271 274
124 130 131 145 155 165 174 183 193 207 233 242 259 250 253 256 267 265 266 264 264 269 271 268 257 251 257 261 260 258 253 270 259 223 210 219 225 220 223 243 261 272 258
138 149 152 157 172 182 193 203 219 222 231 238 242 245 249 257 259 265 266 266 268 265 273 266 261 261 265 265 262 265 262 262 251 235 212 200 220 233 221 239 252 257 263